This is the latest recevied weather packets stored in our database for station/object DK9HI-WX. If no packets are shown the sender has not sent any weather packets the latest 10 day(s).
| Time | Temp. | Humidity | Pressure | Rain* | Wind** | Luminosity | Snow |
|---|---|---|---|---|---|---|---|
| 1787962820 | 18.89° C | 79% | 1011.9 hPa | - | - | - | - |
| 1787962220 | 18.89° C | 79% | 1012 hPa | - | - | - | - |
| 1787961623 | 18.89° C | 79% | 1012 hPa | - | - | - | - |
| 1787961020 | 18.89° C | 80% | 1011.8 hPa | - | - | - | - |
| 1787960420 | 18.89° C | 80% | 1012 hPa | - | - | - | - |
| 1787959820 | 18.89° C | 80% | 1012.1 hPa | - | - | - | - |
| 1787959220 | 18.89° C | 79% | 1011.9 hPa | - | - | - | - |
| 1787958620 | 18.89° C | 79% | 1011.7 hPa | - | - | - | - |
| 1787958020 | 18.89° C | 80% | 1011.7 hPa | - | - | - | - |
| 1787957420 | 18.89° C | 79% | 1011.7 hPa | - | - | - | - |
| 1787956820 | 19.44° C | 78% | 1011.5 hPa | - | - | - | - |
| 1787956220 | 19.44° C | 79% | 1011.4 hPa | - | - | - | - |
| 1787955620 | 19.44° C | 80% | 1011.4 hPa | - | - | - | - |
| 1787955020 | 19.44° C | 83% | 1011.7 hPa | - | - | - | - |
| 1787954420 | 20° C | 84% | 1011.5 hPa | - | - | - | - |
| 1787953820 | 20° C | 88% | 1011.3 hPa | - | - | - | - |
| 1787953220 | 19.44° C | 98% | 1011 hPa | - | - | - | - |
| 1787952620 | 19.44° C | 100% | 1011.2 hPa | - | - | - | - |
| 1787952020 | 19.44° C | 100% | 1011.5 hPa | - | - | - | - |
| 1787951420 | 20° C | 98% | 1011.6 hPa | - | - | - | - |
| 1787950820 | 20° C | 97% | 1011 hPa | - | - | - | - |
| 1787950220 | 20.56° C | 95% | 1011 hPa | - | - | - | - |
| 1787949620 | 20.56° C | 92% | 1010.8 hPa | - | - | - | - |
| 1787949020 | 20.56° C | 92% | 1010.5 hPa | - | - | - | - |
| 1787948420 | 20.56° C | 93% | 1010.6 hPa | - | - | - | - |
* Rain since midnight (hover to see other rain measurements)
** Current wind speed in m/s (hover to see current wind gust speed)